CZ-6A DEB, 61396

Orbit data source: Space-Track

CZ-6A DEB, 61396 is space debris in LEO originally from a launch on Tue, 06 Aug 2024 UTC launched from the Taiyaun Space Center, China (TSC). Debris objects in space refer to the collection of defunct objects orbiting the Earth. Examples of debris include non-operational satellites, rocket bodies, and fragments generated from explosions, collisions, or faulty payload assembly.

Loading next visibility...
Identifier
61396, 2024-140XM
Orbit
LEO
Country
Flag of CNCN / PRC
Related business
Manufacturer
SAST
Mission
Spacecraft
Bus & Motor
Unknown
Mass
Unknown
Launch date (UTC)
2024-08-06 (2 years ago)
Launch vehicle
Unknown
Launch site
Taiyaun Space Center, China (TSC)
Object type
Payload
Rocket body
Debris
Shape & HBR
Unknown shape, 0.1 m
Radar Cross Section
Small (<0.1 m²)

Expand to show TLE details & history
Last TLE update: 16 hours ago

TLE from 16 hours ago
0 CZ-6A DEB
1 61396U 24140XM  26129.84922971  .00001909  00000-0  27894-3 0  9990
2 61396  89.0595 278.5668 0139585 300.2604  58.4858 14.68856391 88961
Epoch: 2026-05-09T20:22Z
TLE epoch observation values (Epoch: 2026-05-09T20:22:53.446Z)
Latitude
-0.00001°
Longitude
105.18335°
Altitude
617.456 km
Speed
7.577 km/s
True Right ascension
18h 34m 16s
True Declination
0° 00' 00"
Sunlit
Object was in full shadow at epoch
Visualization orbit readout
Latitude
Unknown
Longitude
Unknown
Altitude
Unknown
Speed
Unknown
Apparent Right ascension
Unknown
Apparent Declination
Unknown
Sunlit
N/A
Visualization observer readout
Local Sidereal Time
20:41:33
Azimuth
Unknown
Elevation
Unknown
Doppler factor
Unknown
Orbital elements
Apogee altitude
759.866 km
Perigee altitude
563.337 km
Semi-major axis
7,039.739 km
Eccentricity
0.01396
Inclination
89.0595°
RAAN
278.5668°
Arg. of periapsis
300.2604°
True anomaly
59.86183°
Mean anomaly
58.4858°
Eccentric anomaly
59.17257°
Mean motion
3.67459 °/min
Orbital period
97.97 mins
BSTAR
0.00027894
Loading maneuver chart data...
Computing Atmospheric mass density...
Loading historical data...
Loading historical data...
Loading historical data...
Loading historical data...
Loading historical data...
Loading historical data...
Loading historical data...

Documentation

Showing up to 5 results
|